{"data":{"norad_id":63821,"intl_designator":"2025-092T","name":"STARLINK-34047","alt_names":[],"object_type":"PAYLOAD","status":"ACTIVE","operator":null,"country":"US","launch_date":"2025-05-04","launch_site_code":"AFETR","launch_vehicle":null,"mission":null,"orbit_class":"UNKNOWN","rcs_meters":null,"size_class":null,"mass_kg":null,"dimensions":null,"purposes":["comms"],"wikipedia_slug":null,"has_3d_model":false,"image_url":null,"decayed_at":null,"tle_current":{"epoch":"2026-05-25T04:41:20.690304Z","epoch_age_seconds":62201,"freshness":"FRESH","line1":"1 63821U 25092T   26145.19537836  .00016700  00000+0  61501-3 0  9997","line2":"2 63821  43.0020 100.6175 0001363 277.7361  82.3335 15.27581277 60361","mean_motion":15.27581277,"eccentricity":0.0001363,"inclination_deg":43.002,"raan_deg":100.6175,"arg_perigee_deg":277.7361,"mean_anomaly_deg":82.3335,"bstar":0.00061501,"rev_number":6036,"period_min":94.266669910226,"perigee_km":482.11009310121,"apogee_km":483.98045138863,"semimajor_km":6861.1822722449,"source":"CELESTRAK","updated_at":"2026-05-25T13:38:20.142969Z"}}}